Location: Unspecified
(43.4680°N, 87.1740°E)
Time: 05:15:27
(UTC+00:00)

Cosmos 2227 Rocket - Pass Details

Date: 17 April 2021
Orbit: 840 x 843 km, 71.0° (Epoch: 17 May)

Event Time Altitude Azimuth Distance (km) Brightness Sun altitude
Exits shadow 16:50:00 35° 279° (W) 1,340 3.4 -32.8°
Maximum altitude 16:51:02 38° 303° (WNW) 1,272 3.4 -32.8°
Drops below altitude 10° 16:56:18 10° 11° (N) 2,470 5.2 -33.2°
Sets 16:58:56 0° 20° (NNE) 3,408 6.0 -33.4°
